Time,TemperatureF,DewpointF,PressureIn,WindDirection,WindDirectionDegrees,WindSpeedMPH,WindSpeedGustMPH,Humidity,HourlyPrecipIn,Conditions,Clouds,dailyrainin,SoftwareType,DateUTC
2013-02-26 00:02:00,32.0,25.0,17.72,NNW,331,4.0,5.8,75,0.00,,---,0.00,VWS V14.00,2013-02-26 06:02:00,
2013-02-26 00:07:00,32.2,25.2,17.72,NNW,337,3.6,4.9,75,0.00,,---,0.00,VWS V14.00,2013-02-26 06:07:00,
2013-02-26 00:12:00,32.2,25.2,17.72,NW,326,3.6,6.7,75,0.00,,---,0.00,VWS V14.00,2013-02-26 06:12:00,
2013-02-26 00:17:00,32.2,24.8,17.72,North,5,6.3,6.3,74,0.00,,---,0.00,VWS V14.00,2013-02-26 06:17:00,
2013-02-26 00:22:00,32.2,24.8,17.72,North,7,4.9,4.9,74,0.00,,---,0.00,VWS V14.00,2013-02-26 06:22:00,
2013-02-26 00:28:00,32.2,24.8,17.72,NW,320,3.1,5.4,74,0.00,,---,0.00,VWS V14.00,2013-02-26 06:28:00,
2013-02-26 00:33:00,32.2,24.8,17.72,NNW,333,3.1,3.6,74,0.00,,---,0.00,VWS V14.00,2013-02-26 06:33:00,
2013-02-26 00:38:00,32.2,24.8,17.72,NW,317,5.8,5.8,74,0.00,,---,0.00,VWS V14.00,2013-02-26 06:38:00,
2013-02-26 00:43:00,32.0,24.7,17.72,NNW,332,3.1,5.4,74,0.00,,---,0.00,VWS V14.00,2013-02-26 06:43:00,
2013-02-26 00:48:00,32.0,24.7,17.72,NW,308,5.8,6.3,74,0.00,,---,0.00,VWS V14.00,2013-02-26 06:48:00,
2013-02-26 00:53:00,32.0,24.7,17.72,NW,322,5.8,6.3,74,0.00,,---,0.00,VWS V14.00,2013-02-26 06:53:00,
2013-02-26 00:58:00,32.0,24.3,17.72,WNW,284,5.4,5.4,73,0.00,,---,0.00,VWS V14.00,2013-02-26 06:58:00,
2013-02-26 01:03:00,32.0,24.3,17.72,NW,320,3.6,5.8,73,0.00,,---,0.00,VWS V14.00,2013-02-26 07:03:00,
2013-02-26 01:08:00,31.8,24.2,17.72,NNW,339,7.6,7.6,73,0.00,,---,0.00,VWS V14.00,2013-02-26 07:08:00,
2013-02-26 01:13:00,31.8,24.5,17.72,NW,325,3.1,8.1,74,0.00,,---,0.00,VWS V14.00,2013-02-26 07:13:00,
2013-02-26 01:18:00,31.6,24.3,17.72,NW,311,4.9,8.3,74,0.00,,---,0.00,VWS V14.00,2013-02-26 07:18:00,
2013-02-26 01:23:00,31.6,24.3,17.72,NNW,328,3.1,4.0,74,0.00,,---,0.00,VWS V14.00,2013-02-26 07:23:00,
2013-02-26 01:28:00,31.5,24.1,17.72,NNW,330,4.0,4.0,74,0.00,,---,0.00,VWS V14.00,2013-02-26 07:28:00,
2013-02-26 01:33:00,31.3,24.3,17.72,NNW,331,6.7,8.7,75,0.00,,---,0.00,VWS V14.00,2013-02-26 07:33:00,
2013-02-26 01:39:00,31.3,24.3,17.72,NNW,327,11.0,11.0,75,0.00,,---,0.00,VWS V14.00,2013-02-26 07:39:00,
2013-02-26 01:44:00,31.1,24.1,17.72,WNW,303,6.3,7.2,75,0.00,,---,0.00,VWS V14.00,2013-02-26 07:44:00,
2013-02-26 01:49:00,31.1,24.4,17.72,NW,314,8.3,8.3,76,0.00,,---,0.00,VWS V14.00,2013-02-26 07:49:00,
2013-02-26 01:54:00,31.1,24.4,17.72,WNW,303,5.8,5.8,76,0.00,,---,0.00,VWS V14.00,2013-02-26 07:54:00,
2013-02-26 01:59:00,31.1,24.4,17.72,NW,314,5.8,5.8,76,0.00,,---,0.00,VWS V14.00,2013-02-26 07:59:00,
2013-02-26 02:04:00,31.1,24.4,17.72,NW,313,5.4,7.6,76,0.00,,---,0.00,VWS V14.00,2013-02-26 08:04:00,
2013-02-26 02:09:00,30.9,24.3,17.72,NW,325,5.4,5.4,76,0.00,,---,0.00,VWS V14.00,2013-02-26 08:09:00,
2013-02-26 02:14:00,30.9,24.6,17.72,NNW,330,7.2,7.2,77,0.00,,---,0.00,VWS V14.00,2013-02-26 08:14:00,
2013-02-26 02:19:00,30.9,24.6,17.72,NNW,334,3.1,6.3,77,0.00,,---,0.00,VWS V14.00,2013-02-26 08:19:00,
2013-02-26 02:24:00,30.9,24.6,17.72,NW,315,2.2,4.9,77,0.00,,---,0.00,VWS V14.00,2013-02-26 08:24:00,
2013-02-26 02:29:00,30.7,24.4,17.72,NW,313,5.4,5.4,77,0.00,,---,0.00,VWS V14.00,2013-02-26 08:29:00,
2013-02-26 02:34:00,30.7,24.7,17.72,NW,326,3.6,3.6,78,0.00,,---,0.00,VWS V14.00,2013-02-26 08:34:00,
2013-02-26 02:39:00,30.6,24.5,17.72,NW,322,4.0,4.9,78,0.00,,---,0.00,VWS V14.00,2013-02-26 08:39:00,
2013-02-26 02:45:00,30.4,24.7,17.72,NW,319,2.7,5.8,79,0.00,,---,0.00,VWS V14.00,2013-02-26 08:45:00,
2013-02-26 02:50:00,30.4,24.7,17.72,WNW,297,3.6,3.6,79,0.00,,---,0.00,VWS V14.00,2013-02-26 08:50:00,
2013-02-26 02:55:00,30.2,24.8,17.72,WNW,303,3.1,6.3,80,0.00,,---,0.00,VWS V14.00,2013-02-26 08:55:00,
2013-02-26 03:00:00,30.2,24.8,17.72,NW,320,3.1,4.9,80,0.00,,---,0.00,VWS V14.00,2013-02-26 09:00:00,
2013-02-26 03:05:00,30.0,24.6,17.72,WNW,299,3.1,3.6,80,0.00,,---,0.00,VWS V14.00,2013-02-26 09:05:00,
2013-02-26 03:10:00,30.0,24.6,17.72,NW,320,4.9,5.8,80,0.00,,---,0.00,VWS V14.00,2013-02-26 09:10:00,
2013-02-26 03:15:00,29.8,24.4,17.72,NW,308,3.1,6.3,80,0.00,,---,0.00,VWS V14.00,2013-02-26 09:15:00,
2013-02-26 03:20:00,29.8,24.4,17.72,NW,325,2.2,2.2,80,0.00,,---,0.00,VWS V14.00,2013-02-26 09:20:00,
2013-02-26 03:25:00,29.7,24.0,17.72,NW,313,5.4,5.8,79,0.00,,---,0.00,VWS V14.00,2013-02-26 09:25:00,
2013-02-26 03:30:00,29.7,24.0,17.72,WNW,301,6.3,6.3,79,0.00,,---,0.00,VWS V14.00,2013-02-26 09:30:00,
2013-02-26 03:35:00,29.7,24.0,17.72,NW,322,3.6,5.4,79,0.00,,---,0.00,VWS V14.00,2013-02-26 09:35:00,
2013-02-26 03:40:00,29.7,24.0,17.72,WSW,256,3.1,3.6,79,0.00,,---,0.00,VWS V14.00,2013-02-26 09:40:00,
2013-02-26 03:45:00,29.5,23.8,17.72,NNW,327,2.7,3.6,79,0.00,,---,0.00,VWS V14.00,2013-02-26 09:45:00,
2013-02-26 03:50:00,29.5,23.8,17.72,NW,305,4.0,5.4,79,0.00,,---,0.00,VWS V14.00,2013-02-26 09:50:00,
2013-02-26 03:56:00,29.5,23.8,17.72,NW,320,4.9,6.3,79,0.00,,---,0.00,VWS V14.00,2013-02-26 09:56:00,
2013-02-26 04:01:00,29.3,23.6,17.72,WNW,303,5.4,5.4,79,0.00,,---,0.00,VWS V14.00,2013-02-26 10:01:00,
2013-02-26 04:06:00,29.3,23.6,17.72,NW,313,5.4,5.4,79,0.00,,---,0.00,VWS V14.00,2013-02-26 10:06:00,
2013-02-26 04:11:00,29.1,23.4,17.72,WNW,301,5.4,5.4,79,0.00,,---,0.00,VWS V14.00,2013-02-26 10:11:00,
2013-02-26 04:16:00,29.1,23.4,17.72,West,272,2.7,2.7,79,0.00,,---,0.00,VWS V14.00,2013-02-26 10:16:00,
2013-02-26 04:21:00,29.1,23.4,17.72,NNW,331,8.3,8.3,79,0.00,,---,0.00,VWS V14.00,2013-02-26 10:21:00,
2013-02-26 04:26:00,29.1,23.1,17.72,NW,315,3.1,8.1,78,0.00,,---,0.00,VWS V14.00,2013-02-26 10:26:00,
2013-02-26 04:31:00,29.1,23.1,17.72,NW,313,4.0,4.0,78,0.00,,---,0.00,VWS V14.00,2013-02-26 10:31:00,
2013-02-26 04:36:00,29.1,23.1,17.72,NW,307,3.6,3.6,78,0.00,,---,0.00,VWS V14.00,2013-02-26 10:36:00,
2013-02-26 04:41:00,29.1,23.1,17.72,NNW,336,6.3,6.3,78,0.00,,---,0.00,VWS V14.00,2013-02-26 10:41:00,
2013-02-26 04:46:00,29.1,23.1,17.72,NW,309,7.2,7.2,78,0.00,,---,0.00,VWS V14.00,2013-02-26 10:46:00,
2013-02-26 04:51:00,29.1,23.1,17.72,NW,326,7.6,7.6,78,0.00,,---,0.00,VWS V14.00,2013-02-26 10:51:00,
2013-02-26 04:56:00,29.1,23.1,17.72,NNW,332,3.1,5.8,78,0.00,,---,0.00,VWS V14.00,2013-02-26 10:56:00,
2013-02-26 05:02:00,29.1,23.1,17.72,NNW,346,4.9,5.4,78,0.00,,---,0.00,VWS V14.00,2013-02-26 11:02:00,
2013-02-26 05:07:00,29.1,23.1,17.72,NW,326,5.8,7.6,78,0.00,,---,0.00,VWS V14.00,2013-02-26 11:07:00,
2013-02-26 05:12:00,29.1,23.1,17.72,NW,323,7.2,7.2,78,0.00,,---,0.00,VWS V14.00,2013-02-26 11:12:00,
2013-02-26 05:17:00,28.9,23.0,17.72,NNW,333,4.0,4.0,78,0.00,,---,0.00,VWS V14.00,2013-02-26 11:17:00,
2013-02-26 05:22:00,28.9,23.0,17.72,NW,324,5.4,5.4,78,0.00,,---,0.00,VWS V14.00,2013-02-26 11:22:00,
2013-02-26 05:27:00,28.9,23.0,17.72,WNW,294,5.8,6.3,78,0.00,,---,0.00,VWS V14.00,2013-02-26 11:27:00,
2013-02-26 05:32:00,28.9,23.0,17.72,NW,317,4.0,5.8,78,0.00,,---,0.00,VWS V14.00,2013-02-26 11:32:00,
2013-02-26 05:37:00,28.8,22.8,17.72,WNW,300,5.8,5.8,78,0.00,,---,0.00,VWS V14.00,2013-02-26 11:37:00,
2013-02-26 05:42:00,28.8,22.8,17.72,WNW,303,5.4,6.3,78,0.00,,---,0.00,VWS V14.00,2013-02-26 11:42:00,
2013-02-26 05:47:00,28.8,22.8,17.72,NW,324,5.4,6.3,78,0.00,,---,0.00,VWS V14.00,2013-02-26 11:47:00,
2013-02-26 05:52:00,28.6,22.9,17.72,NW,321,7.6,7.6,79,0.00,,---,0.00,VWS V14.00,2013-02-26 11:52:00,
2013-02-26 05:58:00,28.6,22.9,17.72,NW,313,4.0,6.3,79,0.00,,---,0.00,VWS V14.00,2013-02-26 11:58:00,
2013-02-26 06:03:00,28.6,22.9,17.72,NW,320,3.1,3.6,79,0.00,,---,0.00,VWS V14.00,2013-02-26 12:03:00,
2013-02-26 06:08:00,28.4,22.7,17.72,NNW,333,6.3,6.3,79,0.00,,---,0.00,VWS V14.00,2013-02-26 12:08:00,
2013-02-26 06:13:00,28.4,22.7,17.72,NNW,327,5.8,6.3,79,0.00,,---,0.00,VWS V14.00,2013-02-26 12:13:00,
2013-02-26 06:18:00,28.2,22.6,17.72,NW,311,3.1,5.8,79,0.00,,---,0.00,VWS V14.00,2013-02-26 12:18:00,
2013-02-26 06:23:00,28.2,22.6,17.72,WNW,291,4.0,5.4,79,0.00,,---,0.00,VWS V14.00,2013-02-26 12:23:00,
2013-02-26 06:28:00,28.0,22.4,17.72,WNW,302,8.3,8.3,79,0.00,,---,0.00,VWS V14.00,2013-02-26 12:28:00,
2013-02-26 06:33:00,27.9,22.2,17.72,NW,323,5.8,6.3,79,0.00,,---,0.00,VWS V14.00,2013-02-26 12:33:00,
2013-02-26 06:38:00,27.9,22.2,17.72,NW,315,3.1,3.6,79,0.00,,---,0.00,VWS V14.00,2013-02-26 12:38:00,
2013-02-26 06:43:00,27.7,22.3,17.72,NW,325,3.6,4.9,80,0.00,,---,0.00,VWS V14.00,2013-02-26 12:43:00,
2013-02-26 06:48:00,27.5,22.1,17.72,WNW,298,5.4,6.3,80,0.00,,---,0.00,VWS V14.00,2013-02-26 12:48:00,
2013-02-26 06:54:00,27.5,22.1,17.72,NW,312,7.2,7.2,80,0.00,,---,0.00,VWS V14.00,2013-02-26 12:54:00,
2013-02-26 06:59:00,27.3,22.0,17.72,WNW,286,6.3,6.3,80,0.00,,---,0.00,VWS V14.00,2013-02-26 12:59:00,
2013-02-26 07:04:00,27.1,21.8,17.72,WNW,299,2.7,4.9,80,0.00,,---,0.00,VWS V14.00,2013-02-26 13:04:00,
2013-02-26 07:09:00,27.0,21.6,17.72,NW,316,5.4,5.8,80,0.00,,---,0.00,VWS V14.00,2013-02-26 13:09:00,
2013-02-26 07:14:00,27.0,21.6,17.72,NNW,338,4.0,4.0,80,0.00,,---,0.00,VWS V14.00,2013-02-26 13:14:00,
2013-02-26 07:19:00,26.8,21.5,17.72,NW,308,5.4,5.4,80,0.00,,---,0.00,VWS V14.00,2013-02-26 13:19:00,
2013-02-26 07:24:00,26.8,21.5,17.72,NW,314,8.7,8.7,80,0.00,,---,0.00,VWS V14.00,2013-02-26 13:24:00,
2013-02-26 07:29:00,26.8,21.7,17.72,NNW,335,5.8,5.8,81,0.00,,---,0.00,VWS V14.00,2013-02-26 13:29:00,
2013-02-26 07:34:00,26.8,21.7,17.72,NNW,336,5.8,5.8,81,0.00,,---,0.00,VWS V14.00,2013-02-26 13:34:00,
2013-02-26 07:39:00,26.8,21.7,17.72,NW,323,6.3,6.3,81,0.00,,---,0.00,VWS V14.00,2013-02-26 13:39:00,
2013-02-26 07:44:00,26.8,21.7,17.72,NW,326,4.9,5.4,81,0.00,,---,0.00,VWS V14.00,2013-02-26 13:44:00,
2013-02-26 07:50:00,27.0,21.9,17.72,NW,307,8.1,8.1,81,0.00,,---,0.00,VWS V14.00,2013-02-26 13:50:00,
2013-02-26 07:55:00,27.0,21.6,17.72,NW,315,8.1,8.1,80,0.00,,---,0.00,VWS V14.00,2013-02-26 13:55:00,
2013-02-26 08:00:00,27.0,21.6,17.72,NW,326,6.7,10.1,80,0.00,,---,0.00,VWS V14.00,2013-02-26 14:00:00,
2013-02-26 08:05:00,27.0,21.6,17.72,NW,318,3.6,8.7,80,0.00,,---,0.00,VWS V14.00,2013-02-26 14:05:00,
2013-02-26 08:10:00,27.0,21.6,17.72,NW,317,8.3,12.3,80,0.00,,---,0.00,VWS V14.00,2013-02-26 14:10:00,
2013-02-26 08:15:00,27.1,21.5,17.72,NW,307,5.4,5.8,79,0.00,,---,0.00,VWS V14.00,2013-02-26 14:15:00,
2013-02-26 08:20:00,27.3,21.7,17.72,NW,313,10.5,10.5,79,0.00,,---,0.00,VWS V14.00,2013-02-26 14:20:00,
2013-02-26 08:25:00,27.3,21.4,17.72,NNW,335,7.6,7.6,78,0.00,,---,0.00,VWS V14.00,2013-02-26 14:25:00,
2013-02-26 08:30:00,27.3,21.4,17.72,NNW,330,4.0,7.6,78,0.00,,---,0.00,VWS V14.00,2013-02-26 14:30:00,
2013-02-26 08:35:00,27.5,21.5,17.72,NW,309,4.0,4.9,78,0.00,,---,0.00,VWS V14.00,2013-02-26 14:35:00,
2013-02-26 08:40:00,27.5,21.5,17.72,NNW,327,11.0,11.0,78,0.00,,---,0.00,VWS V14.00,2013-02-26 14:40:00,
2013-02-26 08:45:00,27.7,21.7,17.72,NW,305,12.8,12.8,78,0.00,,---,0.00,VWS V14.00,2013-02-26 14:45:00,
2013-02-26 08:51:00,27.7,21.4,17.72,NW,318,5.8,13.6,77,0.00,,---,0.00,VWS V14.00,2013-02-26 14:51:00,
2013-02-26 08:56:00,27.9,21.6,17.72,NW,316,4.0,8.3,77,0.00,,---,0.00,VWS V14.00,2013-02-26 14:56:00,
2013-02-26 09:01:00,27.9,21.6,17.72,NW,319,4.0,6.3,77,0.00,,---,0.00,VWS V14.00,2013-02-26 15:01:00,
2013-02-26 09:06:00,27.9,21.6,17.72,NW,316,5.8,6.3,77,0.00,,---,0.00,VWS V14.00,2013-02-26 15:06:00,
2013-02-26 09:11:00,28.0,21.8,17.72,NW,310,12.3,12.3,77,0.00,,---,0.00,VWS V14.00,2013-02-26 15:11:00,
2013-02-26 09:16:00,28.2,21.6,17.72,NW,305,4.0,8.3,76,0.00,,---,0.00,VWS V14.00,2013-02-26 15:16:00,
2013-02-26 09:21:00,28.2,21.6,17.72,NW,314,7.2,10.1,76,0.00,,---,0.00,VWS V14.00,2013-02-26 15:21:00,
2013-02-26 09:26:00,28.4,21.8,17.72,NW,318,7.2,8.7,76,0.00,,---,0.00,VWS V14.00,2013-02-26 15:26:00,
2013-02-26 09:31:00,28.6,21.7,17.72,North,357,4.0,8.7,75,0.00,,---,0.00,VWS V14.00,2013-02-26 15:31:00,
2013-02-26 09:36:00,28.6,21.4,17.72,WNW,303,8.3,8.7,74,0.00,,---,0.00,VWS V14.00,2013-02-26 15:36:00,
2013-02-26 09:42:00,28.8,21.2,17.72,NW,322,5.4,7.6,73,0.00,,---,0.00,VWS V14.00,2013-02-26 15:42:00,
2013-02-26 09:47:00,28.8,21.2,17.72,NW,312,5.4,8.7,73,0.00,,---,0.00,VWS V14.00,2013-02-26 15:47:00,
2013-02-26 09:52:00,28.9,21.4,17.72,NW,311,6.3,6.3,73,0.00,,---,0.00,VWS V14.00,2013-02-26 15:52:00,
2013-02-26 09:57:00,29.1,21.6,17.72,WNW,297,4.9,6.3,73,0.00,,---,0.00,VWS V14.00,2013-02-26 15:57:00,
2013-02-26 10:02:00,29.1,21.2,17.72,WNW,297,5.4,6.3,72,0.00,,---,0.00,VWS V14.00,2013-02-26 16:02:00,
2013-02-26 10:07:00,29.1,21.2,17.72,NW,322,8.1,8.7,72,0.00,,---,0.00,VWS V14.00,2013-02-26 16:07:00,
2013-02-26 10:12:00,29.1,21.2,17.72,NW,308,8.1,8.1,72,0.00,,---,0.00,VWS V14.00,2013-02-26 16:12:00,
2013-02-26 10:17:00,29.1,21.2,17.72,WNW,291,5.8,6.3,72,0.00,,---,0.00,VWS V14.00,2013-02-26 16:17:00,
2013-02-26 10:22:00,28.9,20.7,17.72,NW,316,6.3,6.3,71,0.00,,---,0.00,VWS V14.00,2013-02-26 16:22:00,
2013-02-26 10:28:00,29.1,20.9,17.72,WNW,294,5.8,8.7,71,0.00,,---,0.00,VWS V14.00,2013-02-26 16:28:00,
2013-02-26 10:33:00,29.5,21.2,17.72,NE,48,3.6,4.9,71,0.00,,---,0.00,VWS V14.00,2013-02-26 16:33:00,
2013-02-26 10:38:00,29.8,21.6,17.72,NNW,338,5.4,5.8,71,0.00,,---,0.00,VWS V14.00,2013-02-26 16:38:00,
2013-02-26 10:43:00,30.2,21.6,17.72,NNW,330,5.8,5.8,70,0.00,,---,0.00,VWS V14.00,2013-02-26 16:43:00,
2013-02-26 10:48:00,30.4,21.1,17.72,NNW,330,6.3,7.6,68,0.00,,---,0.00,VWS V14.00,2013-02-26 16:48:00,
2013-02-26 10:53:00,31.1,22.1,17.72,NW,310,4.0,4.0,69,0.00,,---,0.00,VWS V14.00,2013-02-26 16:53:00,
2013-02-26 10:58:00,31.6,22.0,17.72,NW,319,3.1,6.3,67,0.00,,---,0.00,VWS V14.00,2013-02-26 16:58:00,
2013-02-26 11:03:00,32.2,22.1,17.72,NNW,331,6.3,6.3,66,0.00,,---,0.00,VWS V14.00,2013-02-26 17:03:00,
2013-02-26 11:09:00,32.5,22.1,17.72,NNW,341,6.7,7.6,65,0.00,,---,0.00,VWS V14.00,2013-02-26 17:09:00,
2013-02-26 11:14:00,32.9,22.1,17.72,WNW,291,3.6,5.4,64,0.00,,---,0.00,VWS V14.00,2013-02-26 17:14:00,
2013-02-26 11:19:00,33.1,21.5,17.72,North,349,3.1,4.9,62,0.00,,---,0.00,VWS V14.00,2013-02-26 17:19:00,
2013-02-26 11:24:00,33.1,21.5,17.72,NNW,334,3.1,6.3,62,0.00,,---,0.00,VWS V14.00,2013-02-26 17:24:00,
2013-02-26 11:29:00,33.6,22.0,17.72,NNW,338,3.6,5.8,62,0.00,,---,0.00,VWS V14.00,2013-02-26 17:29:00,
2013-02-26 11:34:00,34.0,22.0,17.72,NNW,332,4.9,4.9,61,0.00,,---,0.00,VWS V14.00,2013-02-26 17:34:00,
2013-02-26 11:39:00,34.3,21.9,17.72,NW,314,4.9,5.4,60,0.00,,---,0.00,VWS V14.00,2013-02-26 17:39:00,
2013-02-26 11:44:00,34.5,21.3,17.72,NW,310,3.6,5.8,58,0.00,,---,0.00,VWS V14.00,2013-02-26 17:44:00,
2013-02-26 11:49:00,34.5,20.9,17.72,NW,313,3.6,6.3,57,0.00,,---,0.00,VWS V14.00,2013-02-26 17:49:00,
2013-02-26 11:54:00,34.3,21.1,17.72,NW,316,6.3,8.1,58,0.08,,---,0.08,VWS V14.00,2013-02-26 17:54:00,
2013-02-26 11:59:00,34.3,21.1,17.72,WNW,298,6.3,8.1,58,0.08,,---,0.08,VWS V14.00,2013-02-26 17:59:00,
2013-02-26 12:05:00,34.3,21.1,17.72,NNW,328,3.6,8.1,58,0.08,,---,0.08,VWS V14.00,2013-02-26 18:05:00,
2013-02-26 12:10:00,34.5,21.7,17.72,NW,315,5.8,5.8,59,0.08,,---,0.08,VWS V14.00,2013-02-26 18:10:00,
2013-02-26 12:15:00,34.7,21.9,17.72,NW,324,5.8,5.8,59,0.08,,---,0.08,VWS V14.00,2013-02-26 18:15:00,
2013-02-26 12:20:00,35.1,21.4,17.72,NW,313,5.4,7.6,57,0.08,,---,0.08,VWS V14.00,2013-02-26 18:20:00,
2013-02-26 12:25:00,35.1,21.4,17.72,WNW,285,5.8,8.1,57,0.08,,---,0.08,VWS V14.00,2013-02-26 18:25:00,
2013-02-26 12:30:00,35.2,21.5,17.72,WNW,284,3.1,5.8,57,0.08,,---,0.08,VWS V14.00,2013-02-26 18:30:00,
2013-02-26 12:35:00,35.6,21.5,17.72,NW,325,7.2,7.6,56,0.08,,---,0.08,VWS V14.00,2013-02-26 18:35:00,
2013-02-26 12:40:00,35.8,21.2,17.72,West,273,4.0,7.6,55,0.08,,---,0.08,VWS V14.00,2013-02-26 18:40:00,
2013-02-26 12:45:00,35.8,21.2,17.72,NW,318,5.8,6.3,55,0.08,,---,0.08,VWS V14.00,2013-02-26 18:45:00,
2013-02-26 12:50:00,35.8,20.8,17.72,North,0,6.3,6.3,54,0.08,,---,0.08,VWS V14.00,2013-02-26 18:50:00,
2013-02-26 12:55:00,36.0,21.0,17.72,NW,321,6.3,6.7,54,0.00,,---,0.08,VWS V14.00,2013-02-26 18:55:00,
2013-02-26 13:00:00,36.1,21.1,17.72,NW,307,5.4,6.3,54,0.00,,---,0.08,VWS V14.00,2013-02-26 19:00:00,
2013-02-26 13:05:00,36.1,20.7,17.72,NW,321,3.1,6.3,53,0.00,,---,0.08,VWS V14.00,2013-02-26 19:05:00,
2013-02-26 13:10:00,36.3,21.3,17.72,West,267,9.2,9.2,54,0.00,,---,0.08,VWS V14.00,2013-02-26 19:10:00,
2013-02-26 13:16:00,36.1,20.7,17.72,West,276,3.1,6.3,53,0.00,,---,0.08,VWS V14.00,2013-02-26 19:16:00,
2013-02-26 13:21:00,35.6,20.6,17.72,West,277,8.1,8.3,54,0.00,,---,0.08,VWS V14.00,2013-02-26 19:21:00,
2013-02-26 13:26:00,35.6,21.0,17.72,WNW,289,5.8,7.6,55,0.00,,---,0.08,VWS V14.00,2013-02-26 19:26:00,
2013-02-26 13:31:00,35.6,20.6,17.72,NW,315,5.4,5.8,54,0.00,,---,0.08,VWS V14.00,2013-02-26 19:31:00,
2013-02-26 13:36:00,35.4,20.4,17.72,WNW,301,4.0,4.0,54,0.00,,---,0.08,VWS V14.00,2013-02-26 19:36:00,
2013-02-26 13:41:00,35.4,20.4,17.72,NW,311,6.3,6.3,54,0.00,,---,0.08,VWS V14.00,2013-02-26 19:41:00,
2013-02-26 13:46:00,35.1,20.5,17.72,NW,305,5.4,5.4,55,0.00,,---,0.08,VWS V14.00,2013-02-26 19:46:00,
2013-02-26 13:51:00,35.4,21.3,17.72,NW,324,6.3,6.3,56,0.00,,---,0.08,VWS V14.00,2013-02-26 19:51:00,
2013-02-26 13:56:00,35.8,21.2,17.72,NW,317,4.9,4.9,55,0.00,,---,0.08,VWS V14.00,2013-02-26 19:56:00,
2013-02-26 14:01:00,35.8,20.8,17.72,NW,314,5.8,8.3,54,0.00,,---,0.08,VWS V14.00,2013-02-26 20:01:00,
2013-02-26 14:06:00,35.6,20.6,17.72,NW,323,7.6,8.7,54,0.00,,---,0.08,VWS V14.00,2013-02-26 20:06:00,
2013-02-26 14:11:00,35.6,20.6,17.72,NW,315,8.7,8.7,54,0.00,,---,0.08,VWS V14.00,2013-02-26 20:11:00,
2013-02-26 14:16:00,35.6,21.0,17.72,NW,325,8.7,8.7,55,0.00,,---,0.08,VWS V14.00,2013-02-26 20:16:00,
2013-02-26 14:22:00,36.0,21.0,17.72,NW,318,4.0,7.6,54,0.00,,---,0.08,VWS V14.00,2013-02-26 20:22:00,
2013-02-26 14:27:00,36.5,21.9,17.72,NW,321,3.6,3.6,55,0.00,,---,0.08,VWS V14.00,2013-02-26 20:27:00,
2013-02-26 14:32:00,36.7,21.2,17.72,NNW,330,3.6,8.7,53,0.00,,---,0.08,VWS V14.00,2013-02-26 20:32:00,
2013-02-26 14:37:00,36.5,21.0,17.72,NW,306,5.8,8.1,53,0.00,,---,0.08,VWS V14.00,2013-02-26 20:37:00,
2013-02-26 14:42:00,36.0,21.0,17.72,NW,326,4.0,6.3,54,0.00,,---,0.08,VWS V14.00,2013-02-26 20:42:00,
2013-02-26 14:47:00,35.8,21.2,17.72,NW,313,5.4,7.2,55,0.00,,---,0.08,VWS V14.00,2013-02-26 20:47:00,
2013-02-26 14:52:00,35.8,21.2,17.72,WNW,282,6.3,7.6,55,0.00,,---,0.08,VWS V14.00,2013-02-26 20:52:00,
2013-02-26 14:57:00,35.4,21.3,17.72,NW,312,4.0,7.6,56,0.00,,---,0.08,VWS V14.00,2013-02-26 20:57:00,
2013-02-26 15:02:00,35.4,21.3,17.72,NW,309,5.8,8.1,56,0.00,,---,0.08,VWS V14.00,2013-02-26 21:02:00,
2013-02-26 15:07:00,35.4,21.7,17.72,NW,314,5.4,5.4,57,0.00,,---,0.08,VWS V14.00,2013-02-26 21:07:00,
2013-02-26 15:12:00,35.4,21.7,17.72,NW,310,3.1,5.8,57,0.00,,---,0.08,VWS V14.00,2013-02-26 21:12:00,
2013-02-26 15:17:00,35.4,22.1,17.72,West,274,5.8,5.8,58,0.00,,---,0.08,VWS V14.00,2013-02-26 21:17:00,
2013-02-26 15:22:00,35.4,22.1,17.72,NNW,329,5.4,5.4,58,0.00,,---,0.08,VWS V14.00,2013-02-26 21:22:00,
2013-02-26 15:27:00,35.6,22.3,17.72,NW,317,7.6,7.6,58,0.00,,---,0.08,VWS V14.00,2013-02-26 21:27:00,
2013-02-26 15:32:00,35.8,22.0,17.72,WNW,301,7.2,7.2,57,0.00,,---,0.08,VWS V14.00,2013-02-26 21:32:00,
2013-02-26 15:37:00,36.1,22.0,17.72,NNW,331,5.8,5.8,56,0.00,,---,0.08,VWS V14.00,2013-02-26 21:37:00,
2013-02-26 15:43:00,36.5,22.3,17.72,WNW,283,5.4,7.6,56,0.00,,---,0.08,VWS V14.00,2013-02-26 21:43:00,
2013-02-26 15:48:00,36.7,22.0,17.72,NNW,327,3.1,10.1,55,0.00,,---,0.08,VWS V14.00,2013-02-26 21:48:00,
2013-02-26 15:53:00,36.5,21.9,17.72,WSW,256,3.6,5.4,55,0.00,,---,0.08,VWS V14.00,2013-02-26 21:53:00,
2013-02-26 15:58:00,36.7,22.0,17.72,NW,317,6.3,7.6,55,0.00,,---,0.08,VWS V14.00,2013-02-26 21:58:00,
2013-02-26 16:03:00,36.1,21.1,17.72,NW,325,8.1,8.1,54,0.00,,---,0.08,VWS V14.00,2013-02-26 22:03:00,
2013-02-26 16:08:00,35.8,21.2,17.72,WNW,296,5.8,8.7,55,0.00,,---,0.08,VWS V14.00,2013-02-26 22:08:00,
2013-02-26 16:13:00,35.2,21.5,17.72,WNW,302,4.9,5.4,57,0.00,,---,0.08,VWS V14.00,2013-02-26 22:13:00,
2013-02-26 16:18:00,35.1,21.8,17.72,NNW,330,5.8,7.6,58,0.00,,---,0.08,VWS V14.00,2013-02-26 22:18:00,
2013-02-26 16:23:00,34.9,21.6,17.72,NW,316,2.7,4.0,58,0.00,,---,0.08,VWS V14.00,2013-02-26 22:23:00,
2013-02-26 16:28:00,34.7,21.9,17.72,WNW,303,7.2,8.3,59,0.00,,---,0.08,VWS V14.00,2013-02-26 22:28:00,
2013-02-26 16:34:00,34.5,21.7,17.72,NW,306,6.3,8.7,59,0.00,,---,0.08,VWS V14.00,2013-02-26 22:34:00,
2013-02-26 16:39:00,34.3,21.9,17.72,NW,324,3.6,3.6,60,0.00,,---,0.08,VWS V14.00,2013-02-26 22:39:00,
2013-02-26 16:44:00,34.5,22.5,17.72,WNW,298,2.2,2.7,61,0.00,,---,0.08,VWS V14.00,2013-02-26 22:44:00,
2013-02-26 16:49:00,34.5,22.9,17.72,NW,311,5.8,6.7,62,0.00,,---,0.08,VWS V14.00,2013-02-26 22:49:00,
2013-02-26 16:54:00,34.5,22.9,17.72,NW,312,2.2,3.1,62,0.00,,---,0.08,VWS V14.00,2013-02-26 22:54:00,
2013-02-26 16:59:00,34.5,22.9,17.72,North,349,6.3,6.3,62,0.00,,---,0.08,VWS V14.00,2013-02-26 22:59:00,
2013-02-26 17:04:00,34.5,22.5,17.72,NW,305,4.0,5.4,61,0.00,,---,0.08,VWS V14.00,2013-02-26 23:04:00,
2013-02-26 17:09:00,34.3,22.7,17.72,NW,320,5.4,6.3,62,0.00,,---,0.08,VWS V14.00,2013-02-26 23:09:00,
2013-02-26 17:14:00,34.3,22.7,17.72,NW,325,7.6,7.6,62,0.00,,---,0.08,VWS V14.00,2013-02-26 23:14:00,
2013-02-26 17:20:00,34.3,22.7,17.72,WNW,297,4.0,7.2,62,0.00,,---,0.08,VWS V14.00,2013-02-26 23:20:00,
2013-02-26 17:25:00,34.3,22.7,17.72,NNW,343,6.3,6.3,62,0.00,,---,0.08,VWS V14.00,2013-02-26 23:25:00,
2013-02-26 17:30:00,34.3,22.7,17.72,NW,319,5.4,5.4,62,0.00,,---,0.08,VWS V14.00,2013-02-26 23:30:00,
2013-02-26 17:35:00,34.2,22.5,17.72,NNW,327,5.8,5.8,62,0.00,,---,0.08,VWS V14.00,2013-02-26 23:35:00,
2013-02-26 17:40:00,34.2,22.9,17.72,NW,312,4.0,4.0,63,0.00,,---,0.08,VWS V14.00,2013-02-26 23:40:00,
2013-02-26 17:45:00,34.0,22.7,17.72,NW,322,3.6,4.0,63,0.00,,---,0.08,VWS V14.00,2013-02-26 23:45:00,
2013-02-26 17:50:00,33.8,22.9,17.72,NW,321,4.0,4.0,64,0.00,,---,0.08,VWS V14.00,2013-02-26 23:50:00,
2013-02-26 17:55:00,33.8,23.3,17.72,NW,323,3.6,4.0,65,0.00,,---,0.08,VWS V14.00,2013-02-26 23:55:00,
2013-02-26 18:00:00,33.6,23.5,17.72,NW,319,3.1,4.0,66,0.00,,---,0.08,VWS V14.00,2013-02-27 00:00:00,
2013-02-26 18:05:00,33.4,23.3,17.72,NW,308,3.6,4.0,66,0.00,,---,0.08,VWS V14.00,2013-02-27 00:05:00,
2013-02-26 18:10:00,33.3,23.5,17.72,WNW,296,2.7,3.6,67,0.00,,---,0.08,VWS V14.00,2013-02-27 00:10:00,
2013-02-26 18:15:00,33.1,23.7,17.72,NW,317,3.1,6.3,68,0.00,,---,0.08,VWS V14.00,2013-02-27 00:15:00,
2013-02-26 18:21:00,33.1,24.0,17.72,NW,317,6.3,8.1,69,0.00,,---,0.08,VWS V14.00,2013-02-27 00:21:00,
2013-02-26 18:26:00,32.9,23.9,17.72,NW,315,5.4,7.6,69,0.00,,---,0.08,VWS V14.00,2013-02-27 00:26:00,
2013-02-26 18:31:00,32.7,24.0,17.72,NNW,335,6.7,6.7,70,0.00,,---,0.08,VWS V14.00,2013-02-27 00:31:00,
2013-02-26 18:36:00,32.7,24.0,17.72,NW,305,4.0,4.0,70,0.00,,---,0.08,VWS V14.00,2013-02-27 00:36:00,
2013-02-26 18:41:00,32.5,24.2,17.72,NNW,341,2.7,3.6,71,0.00,,---,0.08,VWS V14.00,2013-02-27 00:41:00,
2013-02-26 18:46:00,32.5,24.2,17.72,NNW,327,6.3,8.3,71,0.00,,---,0.08,VWS V14.00,2013-02-27 00:46:00,
2013-02-26 18:51:00,32.5,24.5,17.72,WNW,288,4.0,5.8,72,0.00,,---,0.08,VWS V14.00,2013-02-27 00:51:00,
2013-02-26 18:56:00,32.4,24.4,17.72,NW,319,8.7,8.7,72,0.00,,---,0.08,VWS V14.00,2013-02-27 00:56:00,
2013-02-26 19:01:00,32.4,24.7,17.72,NW,305,7.6,7.6,73,0.00,,---,0.08,VWS V14.00,2013-02-27 01:01:00,
2013-02-26 19:06:00,32.2,24.5,17.72,NW,311,4.0,6.3,73,0.00,,---,0.08,VWS V14.00,2013-02-27 01:06:00,
2013-02-26 19:12:00,32.2,24.8,17.72,WNW,298,7.2,7.2,74,0.00,,---,0.08,VWS V14.00,2013-02-27 01:12:00,
2013-02-26 19:17:00,32.2,25.2,17.72,WNW,303,5.4,5.8,75,0.00,,---,0.08,VWS V14.00,2013-02-27 01:17:00,
2013-02-26 19:22:00,32.0,25.0,17.72,WNW,295,6.3,6.3,75,0.00,,---,0.08,VWS V14.00,2013-02-27 01:22:00,
2013-02-26 19:27:00,32.0,25.3,17.72,NNW,328,6.3,7.2,76,0.00,,---,0.08,VWS V14.00,2013-02-27 01:27:00,
2013-02-26 19:32:00,31.8,25.4,17.72,West,277,7.2,8.7,77,0.00,,---,0.08,VWS V14.00,2013-02-27 01:32:00,
2013-02-26 19:37:00,31.8,25.4,17.72,WNW,294,2.7,4.0,77,0.00,,---,0.08,VWS V14.00,2013-02-27 01:37:00,
2013-02-26 19:42:00,31.6,25.6,17.72,WNW,302,3.1,3.1,78,0.00,,---,0.08,VWS V14.00,2013-02-27 01:42:00,
2013-02-26 19:47:00,31.6,25.6,17.72,WNW,289,2.7,2.7,78,0.00,,---,0.08,VWS V14.00,2013-02-27 01:47:00,
2013-02-26 19:52:00,31.6,25.9,17.72,WNW,297,4.0,4.0,79,0.00,,---,0.08,VWS V14.00,2013-02-27 01:52:00,
2013-02-26 19:57:00,31.6,25.9,17.72,West,280,3.1,5.4,79,0.00,,---,0.08,VWS V14.00,2013-02-27 01:57:00,
2013-02-26 20:02:00,31.5,25.7,17.72,NW,318,2.7,2.7,79,0.00,,---,0.08,VWS V14.00,2013-02-27 02:02:00,
2013-02-26 20:07:00,31.5,25.7,17.72,WNW,302,2.7,3.1,79,0.00,,---,0.08,VWS V14.00,2013-02-27 02:07:00,
2013-02-26 20:12:00,31.3,25.8,17.72,NW,304,0.0,3.1,80,0.00,,---,0.08,VWS V14.00,2013-02-27 02:12:00,
2013-02-26 20:17:00,31.3,25.8,17.72,WNW,285,2.7,4.0,80,0.00,,---,0.08,VWS V14.00,2013-02-27 02:17:00,
2013-02-26 20:23:00,31.3,25.8,17.72,West,263,6.3,6.3,80,0.00,,---,0.08,VWS V14.00,2013-02-27 02:23:00,
2013-02-26 20:28:00,31.3,26.1,17.72,NW,325,6.3,6.3,81,0.00,,---,0.08,VWS V14.00,2013-02-27 02:28:00,
2013-02-26 20:33:00,31.1,26.3,17.72,NW,305,2.7,2.7,82,0.00,,---,0.08,VWS V14.00,2013-02-27 02:33:00,
2013-02-26 20:38:00,31.1,26.3,17.72,WNW,297,2.7,4.0,82,0.00,,---,0.08,VWS V14.00,2013-02-27 02:38:00,
2013-02-26 20:43:00,31.1,26.5,17.72,WNW,302,4.9,5.8,83,0.00,,---,0.08,VWS V14.00,2013-02-27 02:43:00,
2013-02-26 20:48:00,31.1,26.5,17.72,NW,314,4.5,5.8,83,0.00,,---,0.08,VWS V14.00,2013-02-27 02:48:00,
2013-02-26 20:53:00,31.1,26.8,17.72,NW,315,3.1,4.0,84,0.00,,---,0.08,VWS V14.00,2013-02-27 02:53:00,
2013-02-26 20:59:00,31.1,26.8,17.72,WNW,299,5.8,6.3,84,0.00,,---,0.08,VWS V14.00,2013-02-27 02:59:00,
2013-02-26 21:04:00,30.9,27.0,17.72,NW,308,5.8,5.8,85,0.00,,---,0.08,VWS V14.00,2013-02-27 03:04:00,
2013-02-26 21:09:00,30.9,27.0,17.72,NW,310,5.4,5.4,85,0.00,,---,0.08,VWS V14.00,2013-02-27 03:09:00,
2013-02-26 21:14:00,30.9,27.2,17.72,NW,317,2.7,3.6,86,0.00,,---,0.08,VWS V14.00,2013-02-27 03:14:00,
2013-02-26 21:19:00,30.9,27.2,17.72,NW,313,3.6,5.8,86,0.00,,---,0.08,VWS V14.00,2013-02-27 03:19:00,
2013-02-26 21:24:00,30.9,27.2,17.72,NW,310,4.0,4.0,86,0.00,,---,0.08,VWS V14.00,2013-02-27 03:24:00,
2013-02-26 21:29:00,30.9,27.2,17.72,NW,315,4.9,5.8,86,0.00,,---,0.08,VWS V14.00,2013-02-27 03:29:00,
2013-02-26 21:35:00,30.9,27.2,17.72,NW,311,3.6,4.0,86,0.00,,---,0.08,VWS V14.00,2013-02-27 03:35:00,
2013-02-26 21:40:00,30.9,27.2,17.72,NW,314,0.0,4.9,86,0.00,,---,0.08,VWS V14.00,2013-02-27 03:40:00,
2013-02-26 21:45:00,30.9,27.5,17.72,NW,311,0.0,4.0,87,0.00,,---,0.08,VWS V14.00,2013-02-27 03:45:00,
2013-02-26 21:50:00,30.9,27.5,17.72,NW,318,4.0,4.0,87,0.00,,---,0.08,VWS V14.00,2013-02-27 03:50:00,
2013-02-26 21:55:00,30.7,27.3,17.72,NW,306,4.9,5.4,87,0.00,,---,0.08,VWS V14.00,2013-02-27 03:55:00,
2013-02-26 22:00:00,30.7,27.3,17.72,NW,325,3.1,3.1,87,0.00,,---,0.08,VWS V14.00,2013-02-27 04:00:00,
2013-02-26 22:05:00,30.7,27.3,17.72,NW,308,3.6,4.0,87,0.00,,---,0.08,VWS V14.00,2013-02-27 04:05:00,
2013-02-26 22:10:00,30.6,27.4,17.72,NW,305,3.6,5.8,88,0.00,,---,0.08,VWS V14.00,2013-02-27 04:10:00,
2013-02-26 22:15:00,30.6,27.4,17.72,NW,323,3.1,3.1,88,0.00,,---,0.08,VWS V14.00,2013-02-27 04:15:00,
2013-02-26 22:20:00,30.6,27.4,17.72,NW,311,4.0,4.0,88,0.00,,---,0.08,VWS V14.00,2013-02-27 04:20:00,
2013-02-26 22:26:00,30.4,27.3,17.72,WNW,302,4.0,5.4,88,0.00,,---,0.08,VWS V14.00,2013-02-27 04:26:00,
2013-02-26 22:31:00,30.4,27.5,17.72,NW,317,4.5,4.5,89,0.00,,---,0.08,VWS V14.00,2013-02-27 04:31:00,
2013-02-26 22:36:00,30.4,27.5,17.72,NW,315,5.8,6.3,89,0.00,,---,0.08,VWS V14.00,2013-02-27 04:36:00,
2013-02-26 22:41:00,30.4,27.5,17.72,NW,311,3.6,3.6,89,0.00,,---,0.08,VWS V14.00,2013-02-27 04:41:00,
2013-02-26 22:46:00,30.2,27.6,17.72,NW,314,2.7,5.8,90,0.00,,---,0.08,VWS V14.00,2013-02-27 04:46:00,
2013-02-26 22:51:00,30.2,27.6,17.72,NNW,334,2.7,3.6,90,0.00,,---,0.08,VWS V14.00,2013-02-27 04:51:00,
2013-02-26 22:57:00,30.2,27.6,17.72,NW,313,5.4,6.3,90,0.00,,---,0.08,VWS V14.00,2013-02-27 04:57:00,
2013-02-26 23:00:00,30.2,27.6,17.72,NW,307,4.0,5.4,90,0.00,,---,0.08,VWS V14.00,2013-02-27 05:00:00,
2013-02-26 23:01:00,30.2,27.6,17.72,NW,310,3.1,3.6,90,0.00,,---,0.08,VWS V14.00,2013-02-27 05:01:00,
2013-02-26 23:06:00,30.2,27.6,17.72,NW,321,2.7,3.1,90,0.00,,---,0.08,VWS V14.00,2013-02-27 05:06:00,
2013-02-26 23:11:00,30.2,27.6,17.72,NW,314,4.0,4.0,90,0.00,,---,0.08,VWS V14.00,2013-02-27 05:11:00,
2013-02-26 23:16:00,30.2,27.9,17.72,NW,316,5.8,5.8,91,0.00,,---,0.08,VWS V14.00,2013-02-27 05:16:00,
2013-02-26 23:21:00,30.2,27.9,17.72,WNW,300,4.0,4.0,91,0.00,,---,0.08,VWS V14.00,2013-02-27 05:21:00,
2013-02-26 23:26:00,30.0,27.7,17.72,NNW,343,4.0,6.3,91,0.00,,---,0.08,VWS V14.00,2013-02-27 05:26:00,
2013-02-26 23:32:00,30.0,27.7,17.72,NW,320,4.0,4.5,91,0.00,,---,0.08,VWS V14.00,2013-02-27 05:32:00,
2013-02-26 23:37:00,30.0,27.7,17.72,NW,319,2.7,5.4,91,0.00,,---,0.08,VWS V14.00,2013-02-27 05:37:00,
2013-02-26 23:42:00,30.0,28.0,17.72,NW,305,5.4,5.4,92,0.00,,---,0.08,VWS V14.00,2013-02-27 05:42:00,
2013-02-26 23:47:00,30.0,28.0,17.72,WNW,300,5.4,5.4,92,0.00,,---,0.08,VWS V14.00,2013-02-27 05:47:00,
2013-02-26 23:52:00,29.8,27.8,17.72,NW,313,3.6,3.6,92,0.00,,---,0.08,VWS V14.00,2013-02-27 05:52:00,
2013-02-26 23:57:00,29.8,27.8,17.72,NW,308,2.7,3.1,92,0.00,,---,0.08,VWS V14.00,2013-02-27 05:57:00,